Princeton, MN

7:25 AM CST on November 21, 2019 (GMT -0600)
Princeton Municipal

Weather History for KPNM - June, 2019

Change the Weather History Date:

Monday, June 3, 2019

  Actual Average Record
Temperature  
Mean Temperature 64 °F -  
Max Temperature 82 °F 70 °F 87 °F (2017)
Min Temperature 46 °F 47 °F 35 °F (1998)
Degree Days  
Heating Degree Days 1    
Growing Degree Days 14 (Base 50)    
Moisture  
Dew Point 48 °F    
Average Humidity 57    
Maximum Humidity 93    
Minimum Humidity 30    
Precipitation  
Precipitation 0.00 in - - ()
Sea Level Pressure  
Sea Level Pressure 29.96 in    
Wind  
Wind Speed 4 mph (SE)    
Max Wind Speed 15 mph    
Max Gust Speed 20 mph    
Visibility 10 miles    
Events      
Averages and records for this station are not official NWS values.
T = Trace of Precipitation, MM = Missing Value Source: NWS Daily Summary

Daily Weather History Graph

Daily Weather History Graph

Search for Another Location

Airport or City:

Astronomy

Jun. 03, 2019 Rise Set
Actual Time 5:27 AM CDT 8:57 PM CDT
Civil Twilight 4:50 AM CDT 9:34 PM CDT
Nautical Twilight 4:01 AM CDT 10:24 PM CDT
Astronomical Twilight 2:58 AM CDT 11:27 PM CDT
Moon 5:52 AM CDT (6/3) 9:21 PM CDT (6/3)
Length of Visible Light 16h 43m
Length of Day
15h 29m
New Moon, 0% of the Moon is Illuminated
Jun 3
New Moon
Jun 10
First Quarter
Jun 17
Full
Jun 25
Last Quarter
Jul 2
New

Hourly Weather History & Observations

Time (CDT) Temp. Dew Point Humidity Pressure Visibility Wind Dir Wind Speed Gust Speed Precip Events Conditions
12:15 AM 48.2 °F 44.6 °F 87% 30.01 in 4.0 mi Calm Calm - N/A   Clear
12:35 AM 48.2 °F 44.6 °F 87% 30.02 in 10.0 mi Calm Calm - N/A   Clear
12:55 AM 46.4 °F 44.6 °F 93% 30.02 in 10.0 mi Calm Calm - N/A   Scattered Clouds
12:56 AM 46.4 °F 44.6 °F 93% 30.02 in 10.0 mi Calm Calm - N/A   Scattered Clouds
1:16 AM 48.2 °F 46.4 °F 93% 30.01 in 5.0 mi Calm Calm - N/A   Overcast
1:35 AM 48.2 °F 44.6 °F 87% 30.02 in 10.0 mi Calm Calm - N/A   Overcast
1:36 AM 48.2 °F 44.6 °F 87% 30.02 in 10.0 mi Calm Calm - N/A   Overcast
1:55 AM 50.0 °F 46.4 °F 87% 30.02 in 10.0 mi Calm Calm - N/A   Overcast
1:57 AM 50.0 °F 46.4 °F 87% 30.02 in 10.0 mi Calm Calm - N/A   Overcast
2:15 AM 50.0 °F 46.4 °F 87% 30.01 in 10.0 mi Calm Calm - N/A   Scattered Clouds
2:35 AM 48.2 °F 46.4 °F 93% 30.00 in 10.0 mi Calm Calm - N/A   Clear
2:55 AM 48.2 °F 44.6 °F 87% 30.01 in 10.0 mi Calm Calm - N/A   Clear
2:56 AM 48.2 °F 44.6 °F 87% 30.01 in 10.0 mi Calm Calm - N/A   Clear
3:15 AM 46.4 °F 44.6 °F 93% 30.01 in 10.0 mi Calm Calm - N/A   Clear
3:35 AM 51.8 °F 44.6 °F 76% 30.01 in 10.0 mi East 5.8 mph - N/A   Clear
3:37 AM 51.8 °F 44.6 °F 76% 30.01 in 10.0 mi ESE 3.5 mph - N/A   Clear
3:55 AM 51.8 °F 44.6 °F 76% 30.01 in 10.0 mi ESE 5.8 mph - N/A   Clear
3:56 AM 51.8 °F 44.6 °F 76% 30.01 in 10.0 mi ESE 4.6 mph - N/A   Clear
4:15 AM 51.8 °F 44.6 °F 76% 30.01 in 10.0 mi ESE 4.6 mph - N/A   Clear
4:35 AM 50.0 °F 42.8 °F 76% 30.01 in 10.0 mi ESE 3.5 mph - N/A   Clear
4:36 AM 50.0 °F 42.8 °F 76% 30.01 in 10.0 mi ESE 3.5 mph - N/A   Clear
4:55 AM 50.0 °F 42.8 °F 76% 30.02 in 10.0 mi SE 3.5 mph - N/A   Clear
4:57 AM 50.0 °F 42.8 °F 76% 30.02 in 10.0 mi ESE 3.5 mph - N/A   Clear
5:15 AM 50.0 °F 42.8 °F 76% 30.02 in 10.0 mi ESE 3.5 mph - N/A   Clear
5:16 AM 50.0 °F 42.8 °F 76% 30.02 in 10.0 mi East 3.5 mph - N/A   Clear
5:35 AM 50.0 °F 42.8 °F 76% 30.02 in 10.0 mi Calm Calm - N/A   Clear
5:55 AM 50.0 °F 42.8 °F 76% 30.02 in 10.0 mi East 3.5 mph - N/A   Clear
5:56 AM 50.0 °F 42.8 °F 76% 30.02 in 10.0 mi Calm Calm - N/A   Clear
6:15 AM 50.0 °F 42.8 °F 76% 30.01 in 10.0 mi East 4.6 mph - N/A   Clear
6:16 AM 50.0 °F 42.8 °F 76% 30.01 in 10.0 mi East 4.6 mph - N/A   Clear
6:35 AM 51.8 °F 42.8 °F 71% 30.02 in 10.0 mi ESE 4.6 mph - N/A   Clear
6:37 AM 51.8 °F 42.8 °F 71% 30.02 in 10.0 mi ESE 4.6 mph - N/A   Clear
6:56 AM 51.8 °F 42.8 °F 71% 30.01 in 10.0 mi ESE 4.6 mph - N/A   Clear
7:15 AM 53.6 °F 42.8 °F 67% 30.02 in 10.0 mi ESE 6.9 mph - N/A   Clear
7:16 AM 53.6 °F 42.8 °F 67% 30.02 in 10.0 mi ESE 5.8 mph - N/A   Clear
7:35 AM 55.4 °F 42.8 °F 63% 30.02 in 10.0 mi ESE 5.8 mph - N/A   Clear
7:55 AM 55.4 °F 42.8 °F 63% 30.03 in 10.0 mi ESE 4.6 mph - N/A   Clear
7:56 AM 55.4 °F 42.8 °F 63% 30.03 in 10.0 mi East 5.8 mph - N/A   Clear
8:16 AM 57.2 °F 44.6 °F 63% 30.03 in 10.0 mi ESE 5.8 mph - N/A   Clear
8:35 AM 59.0 °F 44.6 °F 59% 30.02 in 10.0 mi East 6.9 mph - N/A   Clear
8:36 AM 59.0 °F 44.6 °F 59% 30.02 in 10.0 mi East 6.9 mph - N/A   Clear
8:55 AM 60.8 °F 44.6 °F 55% 30.03 in 10.0 mi East 5.8 mph - N/A   Clear
8:57 AM 60.8 °F 44.6 °F 55% 30.03 in 10.0 mi ESE 5.8 mph - N/A   Clear
9:15 AM 62.6 °F 44.6 °F 52% 30.02 in 10.0 mi ESE 5.8 mph - N/A   Clear
9:16 AM 62.6 °F 44.6 °F 52% 30.02 in 10.0 mi ESE 5.8 mph - N/A   Clear
9:35 AM 62.6 °F 44.6 °F 52% 30.02 in 10.0 mi East 8.1 mph - N/A   Clear
9:36 AM 62.6 °F 44.6 °F 52% 30.02 in 10.0 mi East 8.1 mph - N/A   Clear
9:55 AM 64.4 °F 44.6 °F 49% 30.02 in 10.0 mi ESE 6.9 mph - N/A   Clear
9:56 AM 64.4 °F 44.6 °F 49% 30.02 in 10.0 mi ESE 4.6 mph - N/A   Clear
10:15 AM 66.2 °F 46.4 °F 49% 30.01 in 10.0 mi ESE 6.9 mph - N/A   Clear
10:16 AM 66.2 °F 46.4 °F 49% 30.01 in 10.0 mi ESE 5.8 mph - N/A   Clear
10:35 AM 66.2 °F 46.4 °F 49% 30.01 in 10.0 mi ESE 6.9 mph - N/A   Clear
10:55 AM 68.0 °F 46.4 °F 46% 30.01 in 10.0 mi SE 6.9 mph - N/A   Clear
10:56 AM 68.0 °F 46.4 °F 46% 30.01 in 10.0 mi SE 6.9 mph - N/A   Clear
11:15 AM 69.8 °F 48.2 °F 46% 30.01 in 10.0 mi East 4.6 mph - N/A   Clear
11:16 AM 69.8 °F 48.2 °F 46% 30.01 in 10.0 mi East 4.6 mph - N/A   Clear
11:35 AM 71.6 °F 48.2 °F 43% 30.00 in 10.0 mi ESE 5.8 mph - N/A   Clear
11:55 AM 71.6 °F 50.0 °F 46% 29.99 in 10.0 mi ESE 5.8 mph - N/A   Clear
12:15 PM 71.6 °F 51.8 °F 50% 29.99 in 10.0 mi SE 5.8 mph - N/A   Clear
12:35 PM 75.2 °F 51.8 °F 44% 29.98 in 10.0 mi SSE 5.8 mph - N/A   Clear
12:55 PM 75.2 °F 50.0 °F 41% 29.98 in 10.0 mi ESE 9.2 mph - N/A   Clear
12:56 PM 75.2 °F 50.0 °F 41% 29.98 in 10.0 mi SE 10.4 mph - N/A   Clear
1:15 PM 77.0 °F 50.0 °F 39% 29.97 in 10.0 mi SE 10.4 mph - N/A   Clear
1:16 PM 77.0 °F 50.0 °F 39% 29.97 in 10.0 mi SE 10.4 mph - N/A   Clear
1:35 PM 78.8 °F 51.8 °F 39% 29.96 in 10.0 mi SSE 8.1 mph - N/A   Clear
1:55 PM 78.8 °F 50.0 °F 36% 29.96 in 10.0 mi South 12.7 mph 17.3 mph N/A   Clear
1:56 PM 78.8 °F 50.0 °F 36% 29.96 in 10.0 mi South 10.4 mph 17.3 mph N/A   Clear
2:15 PM 78.8 °F 51.8 °F 39% 29.95 in 10.0 mi South 6.9 mph 17.3 mph N/A   Clear
2:16 PM 78.8 °F 51.8 °F 39% 29.95 in 10.0 mi South 9.2 mph 17.3 mph N/A   Clear
2:35 PM 80.6 °F 51.8 °F 37% 29.94 in 10.0 mi SE 9.2 mph - N/A   Clear
2:36 PM 80.6 °F 51.8 °F 37% 29.94 in 10.0 mi SE 10.4 mph - N/A   Clear
2:55 PM 80.6 °F 51.8 °F 37% 29.93 in 10.0 mi SSE 15.0 mph 18.4 mph N/A   Clear
2:56 PM 80.6 °F 51.8 °F 37% 29.93 in 10.0 mi SE 13.8 mph 18.4 mph N/A   Clear
3:16 PM 82.4 °F 51.8 °F 35% 29.93 in 10.0 mi SSE 15.0 mph - N/A   Clear
3:35 PM 82.4 °F 50.0 °F 32% 29.92 in 10.0 mi South 11.5 mph 18.4 mph N/A   Clear
3:55 PM 82.4 °F 48.2 °F 30% 29.91 in 10.0 mi South 15.0 mph 18.4 mph N/A   Clear
4:15 PM 82.4 °F 48.2 °F 30% 29.91 in 10.0 mi South 13.8 mph 17.3 mph N/A   Clear
4:16 PM 82.4 °F 48.2 °F 30% 29.91 in 10.0 mi South 13.8 mph 17.3 mph N/A   Clear
4:35 PM 82.4 °F 48.2 °F 30% 29.90 in 10.0 mi SSE 11.5 mph 18.4 mph N/A   Clear
4:36 PM 82.4 °F 48.2 °F 30% 29.90 in 10.0 mi South 10.4 mph 18.4 mph N/A   Clear
4:56 PM 82.4 °F 48.2 °F 30% 29.89 in 10.0 mi SSE 12.7 mph 19.6 mph N/A   Clear
5:15 PM 82.4 °F 48.2 °F 30% 29.89 in 10.0 mi South 9.2 mph 19.6 mph N/A   Clear
5:35 PM 82.4 °F 48.2 °F 30% 29.88 in 10.0 mi SSE 10.4 mph 18.4 mph N/A   Clear
5:55 PM 82.4 °F 48.2 °F 30% 29.88 in 10.0 mi South 10.4 mph 13.8 mph N/A   Clear
6:15 PM 80.6 °F 46.4 °F 30% 29.88 in 10.0 mi South 11.5 mph 19.6 mph N/A   Clear
6:35 PM 80.6 °F 48.2 °F 32% 29.87 in 10.0 mi South 8.1 mph - N/A   Clear
6:36 PM 80.6 °F 48.2 °F 32% 29.87 in 10.0 mi South 8.1 mph - N/A   Clear
6:55 PM 80.6 °F 48.2 °F 32% 29.86 in 10.0 mi South 9.2 mph 17.3 mph N/A   Clear
7:15 PM 78.8 °F 50.0 °F 36% 29.86 in 10.0 mi SSE 9.2 mph - N/A   Clear
7:36 PM 78.8 °F 48.2 °F 34% 29.86 in 10.0 mi SSE 10.4 mph - N/A   Clear
7:56 PM 77.0 °F 51.8 °F 41% 29.86 in 10.0 mi SSE 8.1 mph - N/A   Clear
8:15 PM 75.2 °F 51.8 °F 44% 29.86 in 10.0 mi SSE 5.8 mph - N/A   Clear
8:16 PM 75.2 °F 53.6 °F 47% 29.86 in 10.0 mi SSE 5.8 mph - N/A   Clear
8:36 PM 73.4 °F 53.6 °F 50% 29.86 in 10.0 mi SE 4.6 mph - N/A   Clear
8:55 PM 73.4 °F 51.8 °F 47% 29.86 in 10.0 mi SE 5.8 mph - N/A   Clear
8:56 PM 73.4 °F 51.8 °F 47% 29.86 in 10.0 mi SE 5.8 mph - N/A   Clear
9:15 PM 69.8 °F 53.6 °F 56% 29.86 in 10.0 mi SE 3.5 mph - N/A   Clear
9:35 PM 69.8 °F 53.6 °F 56% 29.86 in 10.0 mi SE 3.5 mph - N/A   Clear
9:55 PM 69.8 °F 53.6 °F 56% 29.87 in 10.0 mi SE 3.5 mph - N/A   Clear
9:56 PM 69.8 °F 53.6 °F 56% 29.87 in 10.0 mi SE 3.5 mph - N/A   Clear
10:15 PM 66.2 °F 53.6 °F 64% 29.87 in 10.0 mi SSE 6.9 mph - N/A   Clear
10:16 PM 66.2 °F 53.6 °F 64% 29.87 in 10.0 mi SSE 6.9 mph - N/A   Clear
10:35 PM 66.2 °F 53.6 °F 64% 29.87 in 10.0 mi SSE 6.9 mph - N/A   Clear
10:37 PM 66.2 °F 53.6 °F 64% 29.87 in 10.0 mi SSE 5.8 mph - N/A   Clear
10:55 PM 68.0 °F 55.4 °F 64% 29.88 in 10.0 mi South 5.8 mph - N/A   Clear
10:56 PM 68.0 °F 55.4 °F 64% 29.88 in 10.0 mi South 6.9 mph - N/A   Clear
11:15 PM 69.8 °F 55.4 °F 60% 29.88 in 10.0 mi South 6.9 mph - N/A   Clear
11:35 PM 69.8 °F 53.6 °F 56% 29.88 in 10.0 mi South 8.1 mph - N/A   Clear
11:55 PM 69.8 °F 55.4 °F 60% 29.89 in 10.0 mi South 8.1 mph - N/A   Clear